Regional Weather Roundup
Issued by NWS Boston, MA

Current Version | Previous Version | Graphics & Text | Print | Product List | Glossary On
Versions: 1 2 3 4 5 6 7 8 9 10 11 12 13 14 15 16 17 18 19 20 21 22 23 24 25 26 27
000
ASUS41 KBOX 211704
RWRBOX

REGIONAL WEATHER ROUNDUP
NATIONAL WEATHER SERVICE BOSTON/NORTON MA
100 PM EDT MON JUN 21 2021

NOTE:  "FAIR" INDICATES FEW OR NO CLOUDS BELOW 12,000 FEET WITH NO
SIGNIFICANT WEATHER AND/OR OBSTRUCTIONS TO VISIBILITY.

MAZALL-211800-
EASTERN MASSACHUSETTS

CITY           SKY/WX    TMP DP  RH WIND       PRES   REMARKS
BOSTON         MOSUNNY   87  68  52 S20       29.70F HX  90
BEVERLY        SUNNY     85  73  67 S15G21    29.69F HX  91
LAWRENCE       SUNNY     88  69  53 S10G21    29.69F HX  92
BEDFORD        SUNNY     87  73  62 S14G22    29.68F HX  94
BLUE HILL        N/A     81  70  69 S20G30    29.73F
NORWOOD        MOSUNNY   85  71  63 S10       29.71F HX  90
MARSHFIELD     MOSUNNY   82  70  65 SW14G24   29.72F
PLYMOUTH       PTSUNNY   80  70  71 SW14G20   29.75F
TAUNTON        PTSUNNY   81  70  69 SW15G22   29.75F
NEW BEDFORD    CLOUDY    72  69  90 SW9       29.76F
$$

MAZALL-211800-
CAPE COD AND THE ISLANDS

CITY           SKY/WX    TMP DP  RH WIND       PRES   REMARKS
FALMOUTH       CLOUDY    77  70  78 SW15      29.77F
HYANNIS        CLOUDY    73  70  90 SW15G22   29.76F FOG
CHATHAM        CLOUDY    72  68  87 SW9G18    29.79F FOG
PROVINCETOWN   SUNNY     77  71  82 S13G20    29.76F
NANTUCKET      CLOUDY    74  68  81 S14       29.79F FOG
MARTHAS VNYRD  CLOUDY    72  69  90 SW13      29.78F FOG
$$

MAZALL-211800-
CENTRAL AND WESTERN MASSACHUSETTS

CITY           SKY/WX    TMP DP  RH WIND       PRES   REMARKS
WORCESTER      SUNNY     83  68  60 S20       29.73F
FITCHBURG      MOSUNNY   88  69  53 S18G25    29.69F HX  92
ORANGE         MOSUNNY   87  68  52 S18G25    29.68F HX  90
SPRINGFIELD    PTSUNNY   85  69  58 S12G22    29.67F
WESTFIELD      MOSUNNY   83  72  69 S17G25    29.67F
NORTH ADAMS    SUNNY     88  64  44 SW14G23   29.64F
PITTSFIELD     SUNNY     84  66  54 S16G23    29.67F
$$

RIZALL-211800-
RHODE ISLAND

CITY           SKY/WX    TMP DP  RH WIND       PRES   REMARKS
PROVIDENCE     PTSUNNY   78  70  76 S12       29.75F
NEWPORT        FOG       68  67  96 SW8       29.77F VSB 1/4
BLOCK ISLAND   CLOUDY    69  66  90 SW15      29.78S FOG
SMITHFIELD     CLOUDY    79  73  82 VRB7G17   29.75S
WESTERLY       CLOUDY    69  67  93 S10       29.76F FOG
$$

CTZALL-211800-
CONNECTICUT

CITY           SKY/WX    TMP DP  RH WIND       PRES   REMARKS
BRADLEY INTL   PTSUNNY   80  69  69 S14G20    29.70F
HARTFORD       CLOUDY    80  69  69 S14G21    29.71F
BRIDGEPORT     CLOUDY    77  70  79 S10       29.72F
DANBURY        PTSUNNY   81  72  74 SE14      29.71F
GROTON         CLOUDY    71  69  93 S6        29.74F FOG
NEW HAVEN      CLOUDY    76  72  87 S7        29.72F
CHESTER        CLOUDY    73  72  94 S10       29.75F FOG
MERIDEN        CLOUDY    77  69  76 S12       29.72F
WILLIMANTIC    CLOUDY    78  70  76 S9        29.73F
OXFORD         CLOUDY    77  75  93 S14       29.74F
$$

MEZ002-015-021-024-NHZ003-005-008-011-012-014-VTZ005-008-211800-
NORTHERN NEW ENGLAND

CITY           SKY/WX    TMP DP  RH WIND       PRES   REMARKS
PORTLAND ME    PTSUNNY   71  66  84 S15G22    29.70F
BANGOR ME      MOSUNNY   83  68  60 S18       29.70F
CONCORD NH     MOSUNNY   89  69  51 S16G25    29.65F HX  93
MANCHESTER NH  PTSUNNY   89  67  47 S14G21    29.65F HX  92
NASHUA NH      MOSUNNY   89  69  51 VRB7G18   29.67F HX  93
PORTSMOUTH NH  PTSUNNY   83  69  61 SE15      29.69F
JAFFREY NH     MOSUNNY   87  66  49 S13G21    29.70F
KEENE NH       MOSUNNY   88  67  49 S12G21    29.65F HX  91
BURLINGTON VT  MOSUNNY   88  69  53 S23G37    29.52F HX  92
MT. WASHINGTON FOG       57  57 100 S37G48      N/A  VSB 0
$$

NYZ052-076-211800-
EASTERN NEW YORK

CITY           SKY/WX    TMP DP  RH WIND       PRES   REMARKS
ALBANY         MOSUNNY   85  70  60 S21G29    29.60F
NEW YORK CITY  PTSUNNY   85  70  60 SE13      29.68F
$$

ANZALL-211800-
MARINE OBSERVATIONS

STATION/POSITION TIME  TEMP    WIND        PRES    VSBY  WAVE
                       AIR SEA DIR/SP/G                  HT/PER
                 (UTC) (F)     (DEG/KT/KT) (MB)    (MI)  (FT/S)
BOSTON BUOY      1650   67                 1006.5F         2/ 4
BUZZARDS BAY     1600          200/ 15/ 16 1009.3S
NANTUCKET SOUND  1640      68                N/A
MASS BAY-STELLWA 1604   65 61  170/ 16/ 17 1006.6   1 7/8  3/ 4
ISLE OF SHOALS   1600   64     160/ 26/ 27 1005.4F
S OF BLOCK IS    1626      66                N/A           4/ 7
$$

......................KEY.........................
  SKY/WX - SKY CONDITION/PRESENT WEATHER
  TMP    - TEMPERATURE IN FAHRENHEIT
  DWPT   - DEWPOINT IN FAHRENHEIT
  RH     - RELATIVE HUMIDITY IN PERCENT
  WIND   - DIRECTION AND SPEED IN MPH
  PRES   - MEAN SEA LEVEL PRESSURE IN INCHES OF HG
  WCI    - WIND CHILL INDEX
  VSB    - VISIBILITY IN MILES
  HX     - HEAT INDEX
  TC     - TEMPERATURE IN CELSIUS
  VRB    - VARIABLE WIND DIRECTION
  N/A    - NOT AVAILABLE



USA.gov is the U.S. government's official web portal to all federal, state and local government web resources and services.